BLOCK DM R/B, 26769

Orbit data source: Space-Track

BLOCK DM R/B, 26769 is space debris in HEO originally from a launch on Tue, 15 May 2001 UTC launched from the Tyuratam Missile And Space Complex (TTMTR). Debris objects in space refer to the collection of defunct objects orbiting the Earth. Examples of debris include non-operational satellites, rocket bodies, and fragments generated from explosions, collisions, or faulty payload assembly.

Loading next visibility...
Identifier
26769, 2001-019D
Orbit
HEO
Country
Flag of CISCIS
Related business
Manufacturer
RKKE
Mission
Spacecraft
Bus & Motor
BLOK DM2, Unknown motor
Mass
2,560 kg wet, 2,560 kg dry
Launch date (UTC)
2001-05-15 (25 years ago)
Launch vehicle
Unknown
Launch site
Tyuratam Missile And Space Complex (TTMTR)
Object type
Payload
Rocket body
Debris
Shape & HBR
Cyl + 1 Nozzle, 3.1 m
Radar Cross Section
23.684 m², Large (>1 m²)

Expand to show TLE details & history
Last TLE update: 2 days ago

TLE from 2 days ago
0 BLOCK DM R/B
1 26769U 01019D   25347.54505646 -.00000071  00000-0  00000-0 0  9996
2 26769  18.4441  22.1270 5167659 326.7989 254.9932  1.86700133167671
Epoch: 2025-12-13T13:04Z
TLE epoch observation values (Epoch: 2025-12-13T13:04:52.878Z)
Latitude
0.79014°
Longitude
-78.94028°
Altitude
30,368.74 km
Speed
2.718 km/s
True Right ascension
13h 19m 00s
True Declination
0° 47' 21"
Sunlit
Object was in daylight at epoch
Visualization orbit readout
Latitude
Unknown
Longitude
Unknown
Altitude
Unknown
Speed
Unknown
Apparent Right ascension
Unknown
Apparent Declination
Unknown
Sunlit
N/A
Visualization observer readout
Local Sidereal Time
13:24:38
Azimuth
Unknown
Elevation
Unknown
Doppler factor
Unknown
Orbital elements
Apogee altitude
35,881.357 km
Perigee altitude
7,085.528 km
Semi-major axis
27,861.579 km
Eccentricity
0.51677
Inclination
18.4441°
RAAN
22.127°
Arg. of periapsis
326.7989°
True anomaly
210.61751°
Mean anomaly
254.9932°
Eccentric anomaly
231.74329°
Mean motion
0.4667 °/min
Orbital period
771.38 mins
BSTAR
0
Loading maneuver chart data...
Computing Atmospheric mass density...
Loading historical data...
Loading historical data...
Loading historical data...
Loading historical data...
Loading historical data...
Loading historical data...
Loading historical data...
Other satellites on launch #19 in the year 2001 (2001-05-15 UTC)

Documentation

Showing up to 5 results
|